TIANQI 31

导读 | 星芒AI

TIANQI 31 是中国最新发射的一颗遥感卫星,主要用于气象观测和环境监测。该卫星具备高分辨率成像能力和多光谱探测功能,能够提供更精准的天气预报和气候变化数据。它还支持灾害预警,如台风、暴雨等极端天气的实时监测。TIANQI 31 的成功发射提升了中国在气象卫星领域的技术水平,为国家防灾减灾和生态环境保护提供了有力支持。

基本信息
目录编号:
61197
目录名称:
TIANQI 31
国际标识:
2024-170C
轨道中心:
EARTH
卫星名称:
TIANQI 31
卫星全名:
TIANQI 31
卫星状态:
在轨 (已飞行451 天)
发射日期:
2024-09-20 UTC
国别 :
中国 (CN)
星等 :
--
轨道信息
数据来源 国际轨道数据 AOE轨道数据
星历时间 2025-12-15T06:16:31+0800
20小时前
查看轨道信息
2025-12-12T14:00:00+0800
3天前
查看轨道信息
半长轴 7275.101km 7275.112km
偏心率 0.0008665 0.0008812
轨道倾角 44.861° 44.861°
近地点辐角 290.597° 278.263°
升交点赤经 238.857° 250.798°
平近点角 69.393° 260.032°
近地点 890.662km 890.566km
远地点 903.27km 903.388km
周期 102.924分钟 102.925分钟
每日圈数 13.990856 13.990823
详细信息
使用方式:
暂无
2D轨道图
3D轨道图
轨道高度分析图
轨道倾角分析图
轨道综合分析图
查看轨道综合分析图